Date,TemperatureHighF,TemperatureAvgF,TemperatureLowF,DewpointHighF,DewpointAvgF,DewpointLowF,HumidityHigh,HumidityAvg,HumidityLow,PressureMaxIn,PressureMinIn,WindSpeedMaxMPH,WindSpeedAvgMPH,GustSpeedMaxMPH,PrecipitationSumIn
2013-12-2,67.9,58.6,49.5,24.8,19.9,14.8,29,22,18,29.88,29.76,5,0,5,0.00
2013-12-3,71.6,56.1,46.2,23.1,17.7,9.1,34,24,9,29.77,29.58,22,1,22,0.00
2013-12-4,71.3,59.9,42.5,42.4,33.7,26.5,81,42,20,29.70,29.54,20,2,25,0.00
2013-12-5,61.2,50.0,38.6,41.3,33.0,28.1,67,53,35,29.87,29.67,20,1,20,0.00
2013-12-6,38.5,34.9,30.4,28.5,25.6,22.4,75,68,62,30.07,29.87,8,0,8,0.00
2013-12-7,44.9,35.2,28.2,31.6,27.0,16.5,85,72,54,30.10,29.91,4,1,17,0.00
2013-12-8,55.7,40.3,26.4,26.0,23.4,18.7,88,55,27,30.00,29.88,6,1,20,0.00
2013-12-9,56.3,41.7,28.4,30.0,16.9,-1.0,81,42,17,30.32,29.90,20,1,20,0.00
2013-12-10,50.5,33.3,19.9,1.7,-0.6,-2.4,40,25,11,30.42,30.18,11,0,11,0.00
2013-12-11,30.0,28.7,27.5,2.2,0.8,-0.7,33,30,27,30.23,30.20,4,0,4,0.00
2013-12-12,44.3,38.4,34.4,39.1,28.3,12.4,86,69,34,30.42,30.11,4,0,10,0.00
2013-12-13,59.9,46.2,32.7,40.5,35.1,30.2,95,68,37,30.11,29.87,17,1,17,0.00
2013-12-14,58.1,42.9,33.1,32.2,25.6,21.0,84,55,25,30.33,29.98,9,0,9,0.00
2013-12-15,58.9,42.1,27.9,24.0,20.6,16.1,73,47,19,30.37,30.18,6,0,6,0.00
2013-12-16,65.5,45.3,30.7,24.8,22.2,19.9,65,43,19,30.31,30.12,8,0,8,0.00
2013-12-17,68.6,48.5,35.8,24.3,22.8,21.0,58,39,17,30.30,30.11,9,0,9,0.00
2013-12-18,65.2,47.4,30.0,25.5,22.9,19.5,69,41,19,30.17,29.84,5,0,5,0.00
2013-12-19,67.3,43.4,32.8,25.5,22.5,16.3,66,47,14,29.84,29.65,12,0,12,0.00
2013-12-20,59.8,48.4,40.1,43.0,30.3,17.1,78,51,32,29.69,29.50,18,1,18,0.00
2013-12-21,46.4,41.0,35.5,34.7,30.9,26.9,88,68,48,29.85,29.57,25,3,25,0.00
2013-12-22,54.5,42.6,31.9,28.7,22.2,13.8,75,47,20,30.22,29.85,12,0,12,0.00
2013-12-23,57.6,37.4,27.0,22.5,19.5,16.8,71,53,20,30.41,30.22,5,0,5,0.00